[[{"header":{"parameterUnit":"m.s-1","parameterCategory":1,"la1":30.2992,"la2":30.254,"lo1":-89.0895,"lo2":-89.0443,"dy":0.0025,"dx":0.0025,"nx":19,"ny":19,"refTime":"2026-05-15T21:00:00:Z","depth":0,"parameterNumber":2,"parameterNumberName":"U-component_of_WINDS"},"data":[0,0,0,-4.4253,-4.4254,-4.4316,-4.4317,-4.4413,-4.4414,0,0,0,0,0,0,0,0,0,0,0,-4.4244,-4.4245,-4.4252,-4.4254,-4.4316,-4.4317,-4.4413,-4.4414,0,0,0,0,0,0,0,0,0,0,0,-4.4244,-4.4245,-4.4246,-4.4255,-4.4316,-4.4317,-4.4413,-4.436,0,0,0,0,0,0,0,0,0,0,-4.4297,-4.4299,-4.4245,-4.4246,-4.4255,-4.4316,-4.4317,-4.4357,-4.4363,-4.4393,0,-4.4421,0,-4.442,-4.4422,-4.4422,0,0,0,-4.4247,-4.4294,-4.4301,-4.4247,-4.4256,-4.4316,-4.4286,-4.436,-4.4367,-4.4401,-4.4423,-4.4426,-4.4421,-4.4423,-4.4423,-4.4619,-4.4621,0,0,-4.4243,-4.4261,-4.4297,-4.4306,-4.4298,-4.4284,-4.4288,-4.4364,-4.4389,-4.4423,-4.4428,-4.4423,-4.4424,-4.4424,-4.4618,-4.462,0,0,0,-4.4239,-4.4259,-4.4264,-4.4303,-4.4313,-4.4286,-4.4291,-4.4385,-4.4386,-4.4429,-4.4424,-4.4424,-4.4426,-4.4617,-4.4619,-4.4698,0,0,0,-4.4236,-4.4256,-4.4263,-4.4274,-4.4312,-4.435,-4.4311,-4.4381,-4.4389,-4.4424,-4.4424,-4.4427,-4.4615,-4.4618,-4.4693,-4.4731,0,0,0,-4.4237,-4.4256,-4.4268,-4.4275,-4.4303,-4.4348,-4.4353,-4.4382,-4.4386,-4.4423,-4.4427,-4.4614,-4.4617,-4.4688,-4.4724,-4.4788,0,0,0,-4.4242,-4.4337,-4.427,-4.4375,-4.4302,-4.4398,-4.4352,-4.4422,-4.4463,-4.4425,-4.4616,-4.4619,-4.4687,-4.4719,-4.4783,-4.4843,-4.487,0,0,-4.4372,-4.4354,-4.4414,-4.4356,-4.4467,-4.4387,-4.451,-4.4531,-4.4518,-4.4587,-4.4591,-4.4694,-4.4723,-4.4787,-4.5021,-4.5043,0,0,0,-4.4461,-4.4504,-4.453,-4.457,-4.459,-4.4609,-4.4609,-4.4617,-4.4675,-4.4557,-4.4735,-4.4752,-4.4788,-4.4816,-4.4835,-4.4864,-4.4633,-4.4633,-4.4632,-4.4667,-4.4647,-4.4746,-4.4735,-4.4775,-4.4776,-4.4806,-4.4817,-4.4785,-4.4828,-4.4847,-4.4991,-4.5025,-4.5038,-4.507,-4.4879,-4.4879,-4.488,-4.488,-4.4853,-4.4911,-4.4869,-4.4949,-4.4929,-4.4996,-4.5002,-4.4978,-4.5038,-4.4975,-4.5006,-4.4936,-4.5063,-4.5089,-4.4886,-4.4885,-4.4884,-4.4883,-4.4883,-4.4984,-4.5008,-4.5018,-4.5075,-4.5123,-4.5109,-4.5169,-4.5148,-4.5129,-4.5161,-4.5178,-4.5177,-4.5171,-4.5171,-4.5172,-4.5172,-4.5173,-4.5173,-4.5173,-4.5114,-4.5122,-4.5175,-4.5207,-4.5231,-4.526,-4.5265,-4.5288,-4.5309,-4.5289,-4.5289,-4.5252,-4.508,-4.5036,-4.5181,-4.5179,-4.5179,-4.5178,-4.5177,-4.5305,-4.5259,-4.5341,-4.5366,-4.5402,-4.545,-4.5425,-4.5475,-4.5492,-4.5522,-4.5481,-4.5358,-4.5337,-4.5322,-4.5285,-4.5485,-4.5485,-4.5485,-4.5486,-4.5413,-4.5402,-4.5482,-4.5523,-4.5561,-4.5548,-4.5642,-4.5648,-4.5647,-4.5657,-4.5626,-4.5576,-4.5562,-4.5549,-4.5529,-4.5494,-4.5744,-4.5744,-4.5744,-4.5529,-4.5522,-4.5604,-4.5604,-4.5631,-4.5656,-4.5744,-4.5793,-4.5783,-4.5755,-4.5663,-4.5652,-4.5572,-4.5547,-4.5513,-4.5483,-4.5418,0,0]},{"header":{"parameterUnit":"m.s-1","parameterCategory":1,"la1":30.2992,"la2":30.254,"lo1":-89.0895,"lo2":-89.0443,"dy":0.0025,"dx":0.0025,"nx":19,"ny":19,"refTime":"2026-05-15T21:00:00:Z","depth":0,"parameterNumber":3,"parameterNumberName":"V-component_of_WINDS"},"data":[0,0,0,3.7268,3.7268,3.7286,3.7286,3.7298,3.7298,0,0,0,0,0,0,0,0,0,0,0,3.7256,3.7256,3.7268,3.7268,3.7286,3.7286,3.7298,3.7298,0,0,0,0,0,0,0,0,0,0,0,3.7256,3.7256,3.7256,3.7268,3.7286,3.7286,3.7298,3.7288,0,0,0,0,0,0,0,0,0,0,3.7272,3.7256,3.7256,3.7256,3.7268,3.7286,3.7286,3.7288,3.7289,3.7286,0,3.7282,0,3.729,3.7298,3.7299,0,0,0,3.7272,3.7255,3.7266,3.7256,3.7268,3.7286,3.7279,3.7289,3.729,3.7287,3.7282,3.7283,3.729,3.7299,3.7299,3.7268,3.7268,0,0,3.7271,3.7256,3.7265,3.7266,3.7264,3.7279,3.728,3.7289,3.7283,3.7282,3.7283,3.7291,3.7299,3.7299,3.7268,3.7268,0,0,0,3.7265,3.7255,3.7266,3.7266,3.727,3.7279,3.728,3.7282,3.7287,3.7283,3.7291,3.7299,3.7299,3.7269,3.7268,3.7238,0,0,0,3.7265,3.7252,3.7265,3.7256,3.727,3.7277,3.7273,3.7287,3.7288,3.7291,3.7299,3.7299,3.7269,3.7269,3.724,3.7226,0,0,0,3.7257,3.7251,3.7252,3.7255,3.7263,3.7277,3.7282,3.7287,3.7292,3.7299,3.7299,3.7269,3.7269,3.7241,3.7228,3.7214,0,0,0,3.7244,3.7223,3.7251,3.7231,3.7262,3.7258,3.7282,3.728,3.7281,3.7299,3.7269,3.7268,3.7241,3.723,3.7215,3.7199,3.7191,0,0,3.7209,3.7218,3.7208,3.7233,3.7221,3.7257,3.7239,3.7254,3.7268,3.7267,3.7266,3.7239,3.7228,3.7214,3.7151,3.7144,0,0,0,3.7191,3.7184,3.7184,3.7185,3.7197,3.7207,3.7226,3.7232,3.7233,3.7265,3.723,3.7224,3.7217,3.721,3.7204,3.7199,3.7264,3.7265,3.7265,3.712,3.714,3.7124,3.7147,3.7148,3.7169,3.7172,3.7183,3.7202,3.7194,3.7193,3.7153,3.7144,3.714,3.7134,3.7186,3.7186,3.7186,3.7186,3.7071,3.7063,3.709,3.7085,3.7106,3.7101,3.7121,3.7135,3.7133,3.7154,3.7148,3.717,3.7132,3.7128,3.7184,3.7184,3.7185,3.7185,3.7185,3.7026,3.7026,3.7035,3.704,3.7042,3.7065,3.7063,3.7082,3.71,3.7094,3.7097,3.7097,3.71,3.7094,3.7094,3.7094,3.7094,3.7094,3.7094,3.6976,3.6987,3.6983,3.6996,3.7,3.7008,3.703,3.7035,3.7044,3.7058,3.7058,3.7078,3.7125,3.7136,3.7091,3.7092,3.7092,3.7092,3.7092,3.6919,3.6936,3.693,3.6934,3.6951,3.6952,3.6977,3.6984,3.6991,3.6989,3.7011,3.7042,3.7052,3.7057,3.7066,3.7006,3.7006,3.7006,3.7006,3.6881,3.6889,3.6888,3.6894,3.6902,3.6925,3.6917,3.6935,3.6955,3.696,3.6972,3.6986,3.699,3.6998,3.7004,3.7013,3.6941,3.694,3.694,3.6848,3.6857,3.6847,3.6869,3.6884,3.6896,3.6889,3.6895,3.6921,3.6938,3.6965,3.6967,3.6991,3.6997,3.7014,3.7023,3.704,0,0]}]]